Latest Weather Observations for Narrandera Airport

IDN60801

Issued at 6:33 am EDT Friday 19 December 2014 (issued every 30 minutes, with the page automatically refreshed every 10 minutes)

About weather observations | Map of weather stations | Latest weather observations for NSW | Other Formats
Station Details ID: 074148 Name: NARRANDERA AIRPORT AWS Lat: -34.70 Lon: 146.51 Height: 145.0 m
Data from the previous 72 hours. | See also: Recent months for locations in New South Wales
Date/Time
EDT
Temp
°C
App
Temp
°C
Dew
Point
Rel
Hum
%
Delta-T
°C
Wind Press
QNH
hPa
Press
MSL
hPa
Rain
since 9 am
mm
Dir
 
Spd
km/h
Gust
km/h
Spd
kts
Gust
kts
19/06:30am 12.9 9.8 7.1 68 2.8 WSW 13 19 7 10 1014.6 1013.9 0.0
19/06:00am 12.8 10.1 7.3 69 2.7 WSW 11 17 6 9 1014.2 1013.6 0.0
19/05:30am 13.1 10.4 7.3 68 2.8 SW 11 15 6 8 1013.8 1013.1 0.0
19/05:00am 13.3 10.6 7.5 68 2.9 SW 11 15 6 8 1013.3 1012.6 0.0
19/04:30am 13.7 11.3 7.2 65 3.2 SW 9 13 5 7 1012.9 1012.2 0.0
19/04:00am 14.4 11.7 7.2 62 3.6 SW 11 15 6 8 1012.7 1012.0 0.0
19/03:00am 15.5 11.8 7.8 60 3.9 SSW 17 22 9 12 1012.6 1011.9 0.0
19/02:30am 16.2 12.4 7.7 57 4.3 SSW 17 22 9 12 1012.5 1011.8 0.0
19/02:00am 16.9 12.2 7.8 55 4.6 SSW 22 28 12 15 1012.2 1011.6 0.0
19/01:30am 17.4 13.3 7.7 53 4.9 SSW 19 28 10 15 1012.2 1011.6 0.0
19/01:00am 18.2 14.0 7.6 50 5.4 SSW 19 24 10 13 1012.0 1011.4 0.0
19/12:30am 18.9 14.6 7.0 46 6.0 SSW 19 26 10 14 1011.9 1011.3 0.0
19/12:00am 19.5 13.5 6.9 44 6.4 SSW 28 37 15 20 1011.6 1011.0 0.0
 
Date/Time
EDT
Temp
°C
App
Temp
°C
Dew
Point
Rel
Hum
%
Delta-T
°C
Wind Press
QNH
hPa
Press
MSL
hPa
Rain
since 9 am
mm
Dir
 
Spd
km/h
Gust
km/h
Spd
kts
Gust
kts
18/11:30pm 19.9 13.6 7.3 44 6.5 SSW 30 43 16 23 1011.4 1010.8 0.0
18/11:00pm 20.6 14.9 6.9 41 7.0 SSW 26 41 14 22 1011.2 1010.6 0.0
18/10:30pm 21.3 15.2 6.8 39 7.4 SSW 28 39 15 21 1010.9 1010.3 0.0
18/09:49pm 22.5 16.4 5.0 32 8.7 SW 26 48 14 26 1010.4 1009.8 0.0
18/09:30pm 23.8 19.0 2.6 25 10.2 SW 17 24 9 13 1009.9 1009.3 0.0
18/09:00pm 24.2 19.6 3.5 26 10.2 SW 17 26 9 14 1009.4 1008.8 0.0
18/08:30pm 25.1 19.8 3.1 24 10.8 SW 20 28 11 15 1008.8 1008.2 0.0
18/08:00pm 26.1 19.1 2.1 21 11.7 SW 28 43 15 23 1008.3 1007.6 0.0
18/07:34pm 27.2 20.3 2.3 20 12.2 WSW 28 46 15 25 1007.8 1007.1 0.0
18/07:30pm 27.5 21.4 2.6 20 12.3 WSW 24 41 13 22 1007.7 1007.0 0.0
18/07:00pm 28.3 21.0 2.5 19 12.8 WSW 30 48 16 26 1007.1 1006.4 0.0
18/06:30pm 29.1 21.1 0.7 16 13.7 WSW 32 52 17 28 1006.7 1006.0 0.0
18/06:00pm 30.0 21.9 -0.4 14 14.6 W 32 50 17 27 1006.2 1005.5 0.0
18/05:33pm 30.9 23.5 -0.7 13 15.1 W 28 50 15 27 1006.0 1005.3 0.0
18/05:30pm 30.9 23.6 0.3 14 14.9 W 28 43 15 23 1005.9 1005.2 0.0
18/05:21pm 29.8 21.7 -0.5 14 14.4 WNW 32 48 17 26 1006.0 1005.3 0.0
18/05:19pm 30.0 22.3 -0.4 14 14.5 WNW 30 48 16 26 1005.7 1005.0 0.0
18/05:02pm 30.9 23.5 -0.7 13 15.1 W 28 46 15 25 1005.9 1005.2 0.0
18/05:00pm 30.8 23.5 0.2 14 14.9 W 28 41 15 22 1005.9 1005.2 0.0
18/04:40pm 31.1 23.0 -0.5 13 15.2 W 32 50 17 27 1006.0 1005.3 0.0
18/04:30pm 30.7 22.5 -0.8 13 15.0 W 32 44 17 24 1006.1 1005.4 0.0
18/04:02pm 30.6 23.2 -0.9 13 15.0 W 28 46 15 25 1006.3 1005.6 0.0
18/04:00pm 31.3 23.6 -0.4 13 15.3 WNW 30 46 16 25 1006.2 1005.5 0.0
18/03:30pm 30.9 23.0 -1.8 12 15.3 W 30 44 16 24 1006.3 1005.6 0.0
18/03:00pm 31.3 22.9 -2.6 11 15.8 NW 32 44 17 24 1006.3 1005.6 0.0
18/02:42pm 31.2 23.9 -2.7 11 15.7 WNW 26 46 14 25 1006.3 1005.6 0.0
18/02:30pm 31.6 23.2 -2.4 11 15.9 W 32 44 17 24 1006.5 1005.8 0.0
18/02:08pm 30.6 22.9 -3.2 11 15.4 W 28 46 15 25 1006.6 1005.9 0.0
18/02:00pm 30.8 24.2 -3.0 11 15.6 W 22 35 12 19 1006.7 1006.0 0.0
18/01:35pm 29.8 21.8 -2.6 12 14.9 WNW 30 50 16 27 1006.8 1006.1 0.0
18/01:30pm 30.4 23.2 -2.2 12 15.1 W 26 46 14 25 1006.8 1006.1 0.0
18/01:00pm 29.0 22.5 -2.2 13 14.4 W 22 41 12 22 1007.4 1006.7 0.0
18/12:30pm 29.5 23.5 -1.8 13 14.5 WNW 20 28 11 15 1007.4 1006.7 0.0
18/12:00pm 28.2 22.7 -1.8 14 13.8 W 17 35 9 19 1007.7 1007.0 0.0
18/11:30am 27.9 22.0 -1.1 15 13.5 W 20 37 11 20 1007.8 1007.1 0.0
18/11:00am 27.4 22.1 -0.6 16 13.1 W 17 28 9 15 1008.0 1007.3 0.0
18/10:30am 26.2 21.7 0.0 18 12.2 WNW 13 22 7 12 1008.2 1007.5 0.0
18/10:00am 25.5 22.4 0.2 19 11.8 NNW 6 17 3 9 1008.3 1007.6 0.0
18/09:30am 24.5 21.8 2.6 24 10.6 NNE 6 13 3 7 1008.6 1007.9 0.0
18/09:00am 22.8 20.3 4.8 31 9.0 ENE 7 13 4 7 1008.7 1008.0 0.0
18/08:30am 21.3 18.4 4.8 34 8.1 NE 9 15 5 8 1008.6 1007.9 0.0
18/08:00am 19.8 15.9 1.3 29 8.5 ENE 11 15 6 8 1008.4 1007.7 0.0
18/07:30am 18.4 15.2 1.0 31 7.8 ESE 7 11 4 6 1008.2 1007.5 0.0
18/07:00am 15.6 12.0 3.1 43 5.7 ESE 11 13 6 7 1008.2 1007.5 0.0
18/06:30am 13.0 10.5 4.7 57 3.8 SE 7 11 4 6 1008.1 1007.4 0.0
18/06:00am 11.1 8.8 5.0 66 2.8 SE 6 7 3 4 1007.7 1007.0 0.0
18/05:30am 10.9 9.8 5.2 68 2.6 CALM 0 0 0 0 1007.3 1006.6 0.0
18/05:00am 11.1 9.9 4.6 64 3.0 CALM 0 0 0 0 1007.3 1006.6 0.0
18/04:30am 11.1 10.1 5.4 68 2.6 CALM 0 0 0 0 1007.0 1006.3 0.0
18/04:00am 12.1 11.0 5.3 63 3.2 CALM 0 0 0 0 1006.8 1006.1 0.0
18/03:30am 12.5 11.4 5.0 60 3.5 CALM 0 0 0 0 1006.8 1006.1 0.0
18/03:00am 13.0 11.8 4.7 57 3.9 CALM 0 0 0 0 1006.6 1005.9 0.0
18/02:30am 13.1 12.0 5.3 59 3.7 CALM 0 0 0 0 1006.7 1006.0 0.0
18/02:00am 14.0 13.0 5.6 57 4.0 CALM 0 0 0 0 1006.9 1006.2 0.0
18/01:30am 13.7 12.7 5.8 59 3.8 CALM 0 0 0 0 1006.9 1006.2 0.0
18/01:00am 14.4 13.6 6.7 60 3.8 CALM 0 0 0 0 1007.2 1006.5 0.0
18/12:30am 14.3 12.9 3.7 49 4.9 CALM 0 0 0 0 1007.2 1006.5 0.0
18/12:00am 15.3 14.1 4.7 49 5.0 CALM 0 0 0 0 1007.1 1006.4 0.0
 
Date/Time
EDT
Temp
°C
App
Temp
°C
Dew
Point
Rel
Hum
%
Delta-T
°C
Wind Press
QNH
hPa
Press
MSL
hPa
Rain
since 9 am
mm
Dir
 
Spd
km/h
Gust
km/h
Spd
kts
Gust
kts
17/11:30pm 15.7 14.5 4.4 47 5.3 CALM 0 0 0 0 1006.9 1006.2 0.0
17/11:00pm 16.9 15.4 3.2 40 6.4 CALM 0 0 0 0 1007.2 1006.5 0.0
17/10:30pm 17.1 15.7 3.8 41 6.2 CALM 0 0 0 0 1007.2 1006.5 0.0
17/10:00pm 18.0 16.6 3.5 38 6.8 CALM 0 0 0 0 1007.5 1006.8 0.0
17/09:30pm 20.3 17.3 0.7 27 8.9 WSW 6 9 3 5 1007.4 1006.7 0.0
17/09:00pm 22.5 19.0 -1.6 20 10.6 WSW 7 9 4 5 1007.2 1006.5 0.0
17/08:30pm 23.4 19.9 -1.5 19 11.1 W 7 11 4 6 1007.2 1006.5 0.0
17/08:00pm 25.0 21.1 -1.7 17 12.0 WSW 9 13 5 7 1006.7 1006.0 0.0
17/07:30pm 25.1 22.0 -2.5 16 12.2 SSW 4 7 2 4 1006.2 1005.5 0.0
17/07:00pm 26.6 22.2 -2.1 15 13.0 SW 11 15 6 8 1005.8 1005.1 0.0
17/06:30pm 26.5 22.4 -3.1 14 13.1 S 9 13 5 7 1005.6 1004.9 0.0
17/06:00pm 26.7 22.2 -3.0 14 13.2 WSW 11 20 6 11 1005.7 1005.0 0.0
17/05:30pm 26.3 21.8 -3.3 14 13.0 S 11 19 6 10 1005.8 1005.1 0.0
17/05:00pm 26.7 22.6 -3.0 14 13.2 WSW 9 15 5 8 1006.0 1005.3 0.0
17/04:30pm 26.7 21.4 -4.0 13 13.4 WSW 15 22 8 12 1006.3 1005.6 0.0
17/04:00pm 25.9 20.2 -3.6 14 12.9 SSW 17 24 9 13 1006.5 1005.8 0.0
17/03:30pm 26.2 21.1 -1.6 16 12.6 SW 15 20 8 11 1006.7 1006.0 0.0
17/03:00pm 25.1 19.8 -3.3 15 12.4 SW 15 20 8 11 1006.9 1006.2 0.0
17/02:30pm 25.3 20.0 -3.2 15 12.5 WSW 15 22 8 12 1007.2 1006.5 0.0
17/02:00pm 24.6 19.1 -2.0 17 11.9 SSW 17 28 9 15 1007.2 1006.5 0.0
17/01:30pm 24.2 20.2 -2.4 17 11.7 SW 9 20 5 11 1007.7 1007.0 0.0
17/01:00pm 23.7 17.9 -1.3 19 11.2 SSW 19 28 10 15 1007.8 1007.1 0.0
17/12:30pm 22.6 17.6 -1.5 20 10.6 SSW 15 26 8 14 1008.2 1007.5 0.0
17/12:00pm 22.7 18.1 -1.4 20 10.7 WSW 13 24 7 13 1008.4 1007.7 0.0
17/11:30am 21.3 15.4 -1.9 21 10.1 SW 19 30 10 16 1008.6 1007.9 0.0
17/11:00am 20.9 15.5 -1.6 22 9.8 W 17 26 9 14 1008.6 1007.9 0.0
17/10:30am 20.2 15.3 -0.4 25 9.1 SW 15 26 8 14 1008.7 1008.0 0.0
17/10:00am 19.6 14.4 0.1 27 8.7 SSW 17 28 9 15 1008.7 1008.0 0.0
17/09:30am 18.9 13.2 -0.5 27 8.5 SSW 19 30 10 16 1008.6 1007.9 0.0
17/09:00am 17.8 11.3 0.5 31 7.6 SW 24 32 13 17 1008.6 1007.9 0.2
17/08:30am 17.1 10.9 1.9 36 6.9 SSW 24 32 13 17 1008.4 1007.7 0.2
17/08:00am 15.9 9.6 1.6 38 6.4 SSW 24 33 13 18 1008.3 1007.6 0.2
17/07:30am 15.0 9.8 2.5 43 5.6 SW 19 28 10 15 1007.9 1007.2 0.2
17/07:00am 13.8 10.3 3.3 49 4.8 SW 11 15 6 8 1007.6 1006.9 0.2
17/06:30am 13.2 9.3 3.3 51 4.5 SW 13 17 7 9 1007.1 1006.4 0.2
17/06:00am 12.9 8.9 3.0 51 4.4 SW 13 20 7 11 1006.9 1006.2 0.2
17/05:30am 13.5 8.8 3.0 49 4.7 SW 17 20 9 11 1006.5 1005.8 0.2
17/05:00am 14.1 10.1 3.0 47 5.0 SW 13 19 7 10 1006.3 1005.6 0.2
17/04:30am 14.7 9.6 2.9 45 5.3 SSW 19 28 10 15 1005.9 1005.2 0.2
17/04:00am 15.1 10.5 3.9 47 5.2 SSW 17 20 9 11 1005.7 1005.0 0.2
17/03:30am 16.0 11.5 4.4 46 5.5 SSW 17 28 9 15 1005.5 1004.8 0.2
17/03:00am 16.1 11.7 2.5 40 6.2 SSW 15 19 8 10 1005.4 1004.7 0.2
17/02:30am 16.9 12.6 1.0 34 7.0 SW 13 17 7 9 1005.1 1004.5 0.2
17/02:00am 17.6 13.3 0.7 32 7.5 SW 13 22 7 12 1004.9 1004.3 0.2
17/01:30am 18.3 15.0 2.2 34 7.4 SW 9 13 5 7 1004.9 1004.3 0.2
17/01:00am 19.3 13.9 2.2 32 7.9 SW 20 32 11 17 1004.9 1004.3 0.2
17/12:30am 20.2 13.7 2.5 31 8.3 SW 26 35 14 19 1004.8 1004.2 0.2
17/12:13am 20.8 14.0 3.1 31 8.4 SW 28 50 15 27 1004.4 1003.8 0.2
17/12:00am 21.0 14.5 2.8 30 8.7 SW 26 39 14 21 1004.0 1003.4 0.2
 
Date/Time
EDT
Temp
°C
App
Temp
°C
Dew
Point
Rel
Hum
%
Delta-T
°C
Wind Press
QNH
hPa
Press
MSL
hPa
Rain
since 9 am
mm
Dir
 
Spd
km/h
Gust
km/h
Spd
kts
Gust
kts
16/11:30pm 22.0 15.8 6.3 36 8.0 SW 28 46 15 25 1003.8 1003.2 0.2
16/11:21pm 22.2 16.1 6.4 36 8.1 SW 28 46 15 25 1003.8 1003.2 0.2
16/11:00pm 22.6 17.4 7.2 37 8.1 SW 24 39 13 21 1003.3 1002.7 0.2
16/10:32pm 23.3 16.1 7.8 37 8.2 SW 35 54 19 29 1002.7 1002.0 0.2
16/10:30pm 23.3 16.1 7.8 37 8.2 SW 35 50 19 27 1002.6 1001.9 0.2
16/10:00pm 23.9 17.1 7.9 36 8.5 SW 33 54 18 29 1001.9 1001.2 0.2
16/09:30pm 25.8 19.1 8.3 33 9.5 SW 33 59 18 32 1000.4 999.7 0.2
16/09:14pm 28.2 21.9 5.7 24 11.8 SW 28 57 15 31 999.7 999.0 0.2
16/09:00pm 30.5 24.5 1.0 15 14.6 WSW 22 35 12 19 999.0 998.3 0.2
16/08:42pm 31.6 24.4 0.9 14 15.1 WSW 28 46 15 25 998.4 997.7 0.2
16/08:30pm 32.4 26.5 1.5 14 15.5 WSW 22 37 12 20 997.8 997.2 0.2
16/08:00pm 33.2 27.7 2.1 14 15.9 WSW 20 33 11 18 997.4 996.8 0.2
16/07:30pm 34.0 27.2 0.6 12 16.7 W 26 39 14 21 997.1 996.5 0.2
16/07:00pm 34.7 27.6 1.1 12 17.1 W 28 46 15 25 996.9 996.3 0.2
16/06:30pm 35.1 27.8 0.2 11 17.4 W 28 46 15 25 996.7 996.1 0.2
16/06:06pm 35.8 27.7 -0.5 10 18.0 W 32 50 17 27 996.6 995.9 0.2
16/06:00pm 36.1 27.0 -0.3 10 18.2 W 37 54 20 29 996.6 995.9 0.2
16/05:33pm 36.3 27.3 -0.2 10 18.2 W 37 57 20 31 996.7 996.1 0.2
16/05:30pm 36.4 27.0 -0.1 10 18.3 WNW 39 59 21 32 996.7 996.1 0.2
16/05:03pm 36.5 26.9 -1.4 9 18.6 W 39 57 21 31 996.9 996.3 0.2
16/05:00pm 36.4 27.2 -1.5 9 18.7 W 37 52 20 28 996.9 996.3 0.2
16/04:30pm 36.7 26.4 -1.3 9 18.7 W 43 61 23 33 997.2 996.6 0.2
16/04:13pm 36.7 28.5 -1.3 9 18.7 W 32 54 17 29 997.4 996.8 0.2
16/04:00pm 36.7 28.3 -1.3 9 18.8 WNW 33 44 18 24 997.5 996.9 0.2
16/03:31pm 36.1 27.6 -1.7 9 18.4 W 33 52 18 28 998.3 997.6 0.2
16/03:30pm 36.1 27.0 -3.3 8 18.7 W 35 52 19 28 998.3 997.6 0.2
16/03:01pm 35.5 27.5 -5.5 7 18.7 W 28 46 15 25 998.7 998.0 0.2
16/03:00pm 35.7 27.7 -5.4 7 18.9 W 28 43 15 23 998.7 998.0 0.2
16/02:43pm 35.3 26.5 -5.7 7 18.6 WSW 32 52 17 28 999.0 998.3 0.2
16/02:30pm 35.2 27.0 -7.7 6 18.8 WSW 28 44 15 24 999.1 998.4 0.2
16/02:02pm 34.9 26.3 -8.0 6 18.7 WSW 30 48 16 26 999.4 998.7 0.2
16/02:00pm 35.4 27.2 -7.6 6 19.1 W 28 43 15 23 999.5 998.8 0.2
16/01:31pm 34.7 25.1 -8.1 6 18.6 W 35 54 19 29 999.5 998.8 0.2
16/01:30pm 34.6 24.7 -8.2 6 18.6 W 37 54 20 29 999.5 998.8 0.2
16/01:21pm 34.6 24.1 -10.5 5 18.8 WNW 39 56 21 30 999.7 999.0 0.2
16/01:15pm 35.0 24.7 -7.9 6 18.8 WNW 39 57 21 31 999.5 998.8 0.2
16/01:00pm 34.4 24.5 -8.3 6 18.6 W 37 61 20 33 999.7 999.0 0.2
16/12:48pm 34.1 24.7 -6.5 7 18.0 W 35 54 19 29 999.8 999.1 0.2
16/12:30pm 33.7 25.3 -2.1 10 17.0 WNW 32 44 17 24 999.8 999.1 0.2
16/12:00pm 32.9 25.0 4.6 17 15.0 W 35 48 19 26 1000.0 999.3 0.2
16/11:30am 31.9 26.2 8.2 23 13.2 W 28 48 15 26 1000.0 999.3 0.2
16/11:03am 31.5 25.4 6.5 21 13.5 WSW 28 46 15 25 1000.2 999.5 0.2
16/11:00am 32.2 26.4 7.8 22 13.6 WSW 28 43 15 23 1000.1 999.4 0.2
16/10:30am 31.3 25.7 7.1 22 13.2 WSW 26 35 14 19 999.9 999.2 0.2
16/10:00am 31.1 26.5 8.2 24 12.8 WSW 22 35 12 19 999.5 998.8 0.2
16/09:30am 31.0 26.6 10.4 28 11.8 W 24 35 13 19 999.3 998.6 0.0
16/09:00am 30.6 24.7 8.9 26 12.2 NNW 30 37 16 20 999.2 998.5 4.2
16/08:30am 29.1 22.5 8.7 28 11.3 N 33 48 18 26 998.9 998.2 4.2
16/08:00am 26.7 22.4 12.0 40 8.6 N 26 35 14 19 999.1 998.4 4.2
16/07:30am 25.4 21.4 10.4 39 8.4 NNW 22 28 12 15 999.8 999.1 3.4
16/07:00am 25.8 22.5 11.6 41 8.2 NNW 20 28 11 15 999.3 998.6 3.4

Other Formats:

Comma delimited format used in spreadsheet applications
http://www.bom.gov.au/fwo/IDN60801/IDN60801.95706.axf

JavaScript Object Notation format (JSON) in row-major order
http://www.bom.gov.au/fwo/IDN60801/IDN60801.95706.json